Flag for Germany Weather past 2 weeks in Kulmbach, Bavaria, Germany

Now
51 °F

Low clouds.


Feels Like: 51 °F
Forecast: 55 / 66 °F
Wind: 3 mph from Southeast

Location: Hof

Current Time: May 3, 2015 at 1:01:04 PM

Latest Report: May 3, 2015 at 12:00 PM


Visibility: 13 mi

Pressure: 29.79 "Hg

Humidity: 88%

Dew point: 48 °F

Location of KulmbachLocation

Historic Weather in Kulmbach — Graph

°F

Kulmbach temperature yesterday

Maximum temperature yesterday: 55 °F (at 3:00 PM)
Minimum temperature yesterday: 36 °F (at 6:00 AM)
Average temperature yesterday: 47 °F

Past Weeks' High & Low Weather Summary

 TemperatureHumidityPressure
High67 °F (Apr 27, 2:00 PM)100% (Apr 23, 2:00 AM)30.40 "Hg (Apr 23, 2:00 AM)
Low27 °F (Apr 19, 6:00 AM)25% (Apr 21, 6:00 PM)29.50 "Hg (Apr 27, 2:00 PM)
Average47 °F70%30.01 "Hg
* Reported Apr 18 12:00 Noon — May 3 12:00 Noon, Kulmbach, Weather by CustomWeather, © 2015

Note: Actual official high and low records may vary slightly from our data, if they occured in-between our weather recording intervals... More about our weather records

Advertising

Kulmbach weather history for previous 24 hours

 ConditionsComfort  
Time TempWeatherWind HumidityBarometerVisibility
12:00 PM
Sun, May 3
51 °FLow clouds.3 mph88%29.79 "Hg12 mi
11:00 AM49 °FLight rain. Overcast.3 mph90%29.82 "Hg4 mi
10:00 AM49 °FLow clouds.3 mph84%29.82 "Hg14 mi
9:00 AM47 °FLight rain. Overcast.3 mph84%29.83 "Hg11 mi
8:00 AM45 °FLow clouds.3 mph85%29.84 "Hg12 mi
7:00 AM43 °FOvercast.2 mph89%29.85 "Hg10 mi
6:00 AM42 °FOvercast.1 mph92%29.85 "Hg11 mi
4:00 AM41 °FOvercast.1 mph92%29.88 "Hg7 mi
3:00 AM40 °FOvercast.1 mph93%29.89 "Hg8 mi
2:00 AM41 °FOvercast.2 mph92%29.90 "Hg7 mi
1:00 AM43 °FOvercast.2 mph88%29.91 "Hg9 mi
12:00 AM44 °FOvercast.1 mph86%29.91 "Hg8 mi
10:00 PM
Sat, May 2
50 °FOvercast.3 mph64%29.90 "Hg12 mi
9:00 PM50 °FPassing clouds.1 mph61%29.88 "Hg25 mi
8:00 PM53 °FPartly sunny.1 mph51%29.87 "Hg28 mi
7:00 PM54 °FOvercast.2 mph46%29.86 "Hg37 mi
6:00 PM54 °FOvercast.2 mph44%29.86 "Hg37 mi
4:00 PM55 °FOvercast.2 mph43%29.85 "Hg37 mi
3:00 PM55 °FPartly sunny.3 mph46%29.86 "Hg34 mi
2:00 PM53 °FPartly sunny.3 mph42%29.87 "Hg31 mi
1:00 PM51 °FPartly sunny.3 mph47%29.88 "Hg28 mi
Weather by CustomWeather, © 2015

See weather overviewHow to use our weather pages